Погода в Новошахтинске

Россия / Ростовская область     47°45′15″N   39°56′04″E
темп.,
°C
ветер,
м/с
пор.,
м/с
влажн.,
%
обл.,
%
осадки,
мм/ч
давл.,
гПа
погр.,
м
19 апреля, пн
пн1900:00+9ююз0082100 0.0 101753
03:00+9ссв008528 0.0 101611
06:00+8св118767 0.0 101513
09:00+11всв227696 0.0 1015370
12:00+13ю2166100 0.0 1015853
15:00+11ю2379100 0.1 1014194
18:00+12зюз1272100 0.0 1014160
21:00+11ююв1176100 0.0 101415
20 апреля, вт
вт2000:00+10всв118898 0.0 101310
03:00+9вюв3696100 0.0 1012171
06:00+9всв61096100 0.1 1008373
09:00+10всв4898100 11.4 1007303
12:00+12вюв7149498 14.2 1004745
15:00+14ю51395100 17.1 1003497
18:00+15ююз612800 0.2 1004948
21:00+10ююз8158366 0.3 1006970
21 апреля, ср
ср2100:00+9ююз111788100 0.0 1007977
03:00+9юз101691100 0.0 1009903
06:00+9зюз71292100 0.1 1012673
09:00+10зюз6987100 0.1 1014699
12:00+13зюз686292 0.1 10151560
15:00+14юз785459 0.3 10161716
18:00+12юз676995 0.2 1018687
21:00+9юз4107575 0.2 1020267
22 апреля, чт
чт2200:00+8зюз378056 0.0 1021149
03:00+7зюз238685 0.0 102136
06:00+7юз2489100 0.0 102274
09:00+12юз347393 0.0 1023441
12:00+15ююз44556 0.0 10231511
15:00+16юз454899 0.2 10222090
18:00+14ююз34646 0.8 1023235
21:00+11зюз22771 0.9 102417
23 апреля, пт
пт2300:00+10зсз11775 0.0 102310
03:00+9зсз11803 0.0 102310
06:00+8зсз11825 0.0 102310
09:00+13ю22655 0.0 1023450
12:00+16юз34525 0.0 10221611
15:00+17зюз444311 0.0 10212137
18:00+16ююз33513 0.0 1020223
21:00+12зюз22620 0.0 102021